Location: Newark
(44.1906°N, 75.9681°W)
Time: 12:36:38
(UTC+00:00)

Envisat - Pass Details

Date: 25 January 2020
Orbit: 764 x 766 km, 98.1° (Epoch: 24 February)

Event Time Altitude Azimuth Distance (km) Brightness Sun altitude
Rises 11:12:07 0° 20° (NNE) 3,242 6.3 -13.8°
Reaches altitude 10° 11:14:35 10° 28° (NNE) 2,311 5.7 -13.4°
Maximum altitude 11:19:21 39° 97° (E) 1,133 4.6 -12.6°
Drops below altitude 10° 11:24:04 10° 166° (SSE) 2,294 5.9 -11.7°
Sets 11:26:30 0° 174° (S) 3,215 6.5 -11.3°
